This demonstration page uses our WeatherBlox Daily Observations layout. Learn more.

Hourly Observations for April 26, 2019

Temp ( °F °C ) Dew Point ( °F °C ) Humidity (%) Winds ( mph kmh ) Pressure ( in mb ) Visibility ( mi km ) Precip ( " mm )
12:15 am 00:15 Cloudy 59 15 59 15 100 100 Calm 29.85 1011 7 11.265408 0 0
12:35 am 00:35 Cloudy 57 14 57 14 100 100 Calm 29.85 1011 7 11.265408 0 0
12:55 am 00:55 Cloudy 57 14 57 14 100 100 NE 6 9 29.8 1009 5 8.04672 0 0
1:15 am 01:15 Mostly Cloudy 57 14 57 14 100 100 ESE 7 11 29.8 1009 7 11.265408 0 0
1:35 am 01:35 Cloudy 57 14 57 14 100 100 SE 6 9 29.8 1009 10 16.09344 0 0
1:55 am 01:55 Cloudy 57 14 57 14 100 100 SSW 3 6 29.83 1010 10 16.09344 0 0
2:15 am 02:15 Cloudy 57 14 57 14 100 100 Calm 29.8 1009 10 16.09344 0 0
2:35 am 02:35 Cloudy 55 13 55 13 100 100 SE 5 7 29.77 1008 10 16.09344 0 0
2:55 am 02:55 Mostly Cloudy 57 14 55 13 94 94 Calm 29.77 1008 10 16.09344 0 0
3:15 am 03:15 Partly Cloudy 57 14 55 13 94 94 S 3 6 29.77 1008 10 16.09344 0 0
3:35 am 03:35 Mostly Cloudy 55 13 55 13 100 100 S 3 6 29.77 1008 10 16.09344 0 0
3:55 am 03:55 Partly Cloudy 55 13 55 13 100 100 SE 3 6 29.74 1007 10 16.09344 0 0
4:15 am 04:15 Clear 55 13 55 13 100 100 Calm 29.71 1006 10 16.09344 0 0
4:35 am 04:35 Clear 55 13 55 13 100 100 Calm 29.71 1006 10 16.09344 0 0
4:55 am 04:55 Clear with Nearby Thunderstorms 55 13 55 13 100 100 SSE 5 7 29.71 1006 10 16.09344 0 0
5:15 am 05:15 Mostly Cloudy with Thunderstorms 55 13 55 13 100 100 ESE 5 7 29.71 1006 5 8.04672 0 0
5:35 am 05:35 Cloudy with Nearby Thunderstorms 55 13 55 13 100 100 SSE 9 15 29.71 1006 10 16.09344 0 0
5:55 am 05:55 Mostly Cloudy 54 12 54 12 100 100 Calm 29.68 1005 10 16.09344 0 0
6:15 am 06:15 Mostly Cloudy 55 13 54 12 94 94 Calm 29.68 1005 10 16.09344 0 0
6:35 am 06:35 Mostly Cloudy 54 12 54 12 100 100 SSE 5 7 29.68 1005 10 16.09344 0 0
6:55 am 06:55 Mostly Cloudy 54 12 54 12 100 100 Calm 29.68 1005 10 16.09344 0 0
7:15 am 07:15 Cloudy 54 12 54 12 100 100 Calm 29.68 1005 7 11.265408 0 0
7:35 am 07:35 Cloudy 54 12 54 12 100 100 Calm 29.65 1004 10 16.09344 0 0
7:55 am 07:55 Cloudy 54 12 54 12 100 100 Calm 29.65 1004 10 16.09344 0 0
8:15 am 08:15 Cloudy 55 13 55 13 100 100 Calm 29.65 1004 10 16.09344 0 0
8:35 am 08:35 Cloudy 55 13 55 13 100 100 Calm 29.62 1003 10 16.09344 0 0
8:55 am 08:55 Cloudy 55 13 55 13 100 100 Calm 29.62 1003 7 11.265408 0 0
9:15 am 09:15 Cloudy 55 13 55 13 100 100 SW 3 6 29.62 1003 5 8.04672 0 0
9:30 am 09:30 Cloudy 55 13 55 13 100 100 S 3 6 29.59 1002 5 8.04672 0 0
9:55 am 09:55 Cloudy 55 13 55 13 100 100 ESE 3 6 29.56 1001 7 11.265408 0 0
10:15 am 10:15 Cloudy 57 14 57 14 100 100 SE 8 13 29.53 1000 5 8.04672 0 0
10:35 am 10:35 Cloudy 59 15 59 15 100 100 SSE 3 6 29.53 1000 7 11.265408 0 0
10:55 am 10:55 Cloudy 61 16 61 16 100 100 SW 5 7 29.53 1000 10 16.09344 0 0
11:15 am 11:15 Mostly Cloudy 63 17 61 16 94 94 S 6 9 29.5 999 10 16.09344 0 0
11:35 am 11:35 Mostly Cloudy 66 19 63 17 88 88 S 12 19 29.5 999 10 16.09344 0 0
11:55 am 11:55 Mostly Cloudy 70 21 63 17 78 78 S 14 22 29.47 998 10 16.09344 0 0
12:15 pm 12:15 Cloudy 72 22 63 17 73 73 SSW 10 17 29.47 998 10 16.09344 0 0
12:35 pm 12:35 Cloudy 72 22 63 17 73 73 S 21 33 29.44 997 10 16.09344 0 0
12:55 pm 12:55 Cloudy 73 23 61 16 65 65 SSW 13 20 29.41 996 10 16.09344 0 0
1:15 pm 13:15 Cloudy 73 23 61 16 65 65 SSW 15 24 29.41 996 10 16.09344 0 0
1:35 pm 13:35 Cloudy 73 23 61 16 65 65 SSW 16 26 29.38 995 10 16.09344 0 0
1:55 pm 13:55 Cloudy 70 21 63 17 78 78 SSW 18 30 29.38 995 7 11.265408 0 0
2:15 pm 14:15 Cloudy 72 22 63 17 73 73 WSW 14 22 29.38 995 10 16.09344 0 0
2:35 pm 14:35 Cloudy with Thunderstorms 66 19 63 17 88 88 WSW 13 20 29.38 995 2.5 4.02336 0 0
2:55 pm 14:55 Cloudy 63 17 63 17 100 100 SSW 9 15 29.41 996 7 11.265408 0 0
3:15 pm 15:15 Cloudy 61 16 61 16 100 100 WSW 9 15 29.41 996 5 8.04672 0 0
3:35 pm 15:35 Cloudy 61 16 61 16 100 100 WSW 7 11 29.41 996 3 4.828032 0 0
4:15 pm 16:15 Partly Cloudy 63 17 63 17 100 100 W 10 17 29.38 995 10 16.09344 0 0
4:35 pm 16:35 Partly Cloudy 63 17 61 16 94 94 WNW 12 19 29.41 996 10 16.09344 0 0
4:55 pm 16:55 Cloudy 63 17 57 14 83 83 NW 21 33 29.38 995 10 16.09344 0 0
5:15 pm 17:15 Mostly Cloudy 64 18 55 13 73 73 NW 15 24 29.41 996 10 16.09344 0 0
5:35 pm 17:35 Mostly Cloudy 63 17 54 12 73 73 NW 17 28 29.44 997 10 16.09344 0 0
5:55 pm 17:55 Mostly Cloudy 63 17 52 11 68 68 NW 16 26 29.47 998 10 16.09344 0 0
6:15 pm 18:15 Mostly Cloudy 63 17 52 11 68 68 NW 17 28 29.47 998 10 16.09344 0 0
6:35 pm 18:35 Partly Cloudy 63 17 50 10 64 64 NW 15 24 29.47 998 10 16.09344 0 0
6:55 pm 18:55 Mostly Cloudy 61 16 50 10 68 68 NW 15 24 29.47 998 10 16.09344 0 0
7:15 pm 19:15 Cloudy 61 16 50 10 68 68 NW 21 33 29.5 999 10 16.09344 0 0
7:35 pm 19:35 Cloudy 61 16 48 9 63 63 NW 23 37 29.53 1000 10 16.09344 0 0
7:55 pm 19:55 Cloudy 59 15 46 8 63 63 NNW 30 48 29.53 1000 10 16.09344 0 0
8:15 pm 20:15 Cloudy 57 14 45 7 63 63 NNW 25 41 29.56 1001 10 16.09344 0 0
8:35 pm 20:35 Mostly Cloudy 57 14 45 7 63 63 NNW 21 33 29.59 1002 10 16.09344 0 0
8:55 pm 20:55 Mostly Cloudy 55 13 45 7 67 67 NNW 12 19 29.62 1003 10 16.09344 0 0
9:15 pm 21:15 Cloudy 55 13 45 7 67 67 NW 10 17 29.62 1003 10 16.09344 0 0
9:35 pm 21:35 Cloudy 55 13 45 7 67 67 NW 12 19 29.62 1003 10 16.09344 0 0
9:55 pm 21:55 Partly Cloudy 55 13 45 7 67 67 NW 15 24 29.62 1003 10 16.09344 0 0
10:15 pm 22:15 Mostly Cloudy 55 13 45 7 67 67 NW 15 24 29.65 1004 10 16.09344 0 0
10:35 pm 22:35 Mostly Cloudy 55 13 45 7 67 67 NW 17 28 29.62 1003 10 16.09344 0 0
10:55 pm 22:55 Partly Cloudy 55 13 45 7 67 67 NW 17 28 29.62 1003 10 16.09344 0 0
11:15 pm 23:15 Clear 55 13 45 7 67 67 NW 10 17 29.65 1004 10 16.09344 0 0
11:35 pm 23:35 Clear 55 13 45 7 67 67 WNW 8 13 29.65 1004 10 16.09344 0 0
11:55 pm 23:55 Partly Cloudy 55 13 45 7 67 67 NW 13 20 29.65 1004 10 16.09344 0 0

Powered by AerisWeather